Regional Weather Roundup
Issued by NWS

Home | Current Version | Previous Version | Text Only | Print | Product List | Glossary On
Versions: 1 2 3 4 5 6 7 8 9 10 11 12 13 14 15 16 17 18 19 20 21 22 23 24 25 26 27 28 29 30 31 32 33 34 35 36 37 38 39 40 41 42 43 44 45 46
000
ASUS46 KPQR 280910
RWROR

OREGON REGIONAL WEATHER ROUNDUP
NATIONAL WEATHER SERVICE PORTLAND OR
100 AM PST SUN DEC 28 2014

NOTE: "FAIR" INDICATES FEW OR NO CLOUDS BELOW 12,000 FEET WITH
NO SIGNIFICANT WEATHER AND/OR OBSTRUCTIONS TO VISIBILITY.

ORZ001>013-281000-
NORTHWEST OREGON


CITY           SKY/WX    TMP DP  RH WIND       PRES   REMARKS
ASTORIA        MOCLDY    45  39  79 W10       30.18R
NEWPORT        RAIN      46  45  93 NW15G23   30.31R
PORTLAND       CLOUDY    44  40  85 SW3       30.20F
VANCOUVER WA   CLOUDY    44  38  79 CALM      30.20S
SCAPPOOSE      LGT RAIN  40  38  93 SE3       30.18F
HILLSBORO      LGT RAIN  38  38 100 CALM      30.20S
AURORA         CLOUDY    43  39  86 S7        30.23S
MCMINNVILLE    CLOUDY    45  41  86 SW8       30.23S
SALEM          CLOUDY    45  40  82 S13       30.23F
CORVALLIS      CLOUDY    43  39  87 S9        30.27F
EUGENE         CLOUDY    46  42  86 VRB6      30.29R
$$

ORZ021-028-281000-
SOUTHWEST OREGON


CITY           SKY/WX    TMP DP  RH WIND       PRES   REMARKS
NORTH BEND     CLOUDY    50  50 100 NW7       30.34S
BROOKINGS      CLOUDY    46  45  97 VRB6      30.37F
ROSEBURG       CLOUDY    45  44  97 SE5       30.30F
SEXTON SUMMIT  CLOUDY    32  32 100 SW13      30.24S WCI  22
MEDFORD        CLOUDY    40  37  89 CALM      30.34S
$$

ORZ014>016-041-281000-
COLUMBIA GORGE


CITY           SKY/WX    TMP DP  RH WIND       PRES   REMARKS
TROUTDALE      CLOUDY    45  40  82 SW9       30.19S
THE DALLES     LGT RAIN  43  38  82 NW12      30.11S
$$

ORZ029>031-041-044-049-050-061>064-502-503-505>511-281000-
EASTERN OREGON


CITY           SKY/WX    TMP DP  RH WIND       PRES   REMARKS
REDMOND        CLOUDY    36  31  82 N12       30.10S WCI  28
BEND           CLEAR     34  28  80 N5        30.10S WCI  30
PRINEVILLE     CLOUDY    36  32  87 W13       30.11S WCI  27
KLAMATH FALLS  CLOUDY   N/A N/A N/A SW13      30.21F
LAKEVIEW       CLOUDY    32  25  74 SE15      30.18F WCI  22
HERMISTON      PTCLDY    40  30  67 SW8       30.05S WCI  34
PENDLETON      PTCLDY    40  28  62 W28G33    30.02S WCI  29
JOHN DAY       FLURRIES  33  32  96 SW9       30.06S WCI  26
MEACHAM        CLOUDY    32  27  81 VRB5      29.99R WCI  27
LA GRANDE      PTCLDY    27  16  63 SE7       30.02F WCI  19
BAKER CITY     NOT AVBL
BURNS          FLURRIES  34  31  88 SW9       30.05S WCI  27
ROME             N/A     39  26  59 SW17G31   30.06F WCI  30
ONTARIO        FLURRIES  32  29  88 N5        30.12R WCI  27
$$


USA.gov is the U.S. government's official web portal to all federal, state and local government web resources and services.